Weather in Dera Ghazi Khan

Pakistan     30°03′09″N   70°38′03″E
temp.,
°C
wind,
m/s
gust,
m/s
humid.,
%
clouds,
%
prec.,
mm/h
press.,
hPa
HPBL,
m
25 may, wed
wed2523:00+34e49200 0.0 1003253
02:00+30nne22310 0.0 100536
05:00+28nnw00350 0.0 100611
08:00+31sse01310 0.0 1007570
11:00+37s34190 0.0 10051693
14:00+41s55140 0.0 10022321
17:00+42s55120 0.0 9992361
20:00+38s47130 0.0 1000137
26 may, thu
thu2623:00+35s34150 0.0 100052
02:00+33se34180 0.0 99951
05:00+31sse22200 0.0 99923
08:00+36nnw34150 0.0 1001402
11:00+41nnw22110 0.0 10001684
14:00+44w1290 0.0 9972287
17:00+45se3380 0.0 9951724
20:00+41s36133 0.0 995133
27 may, fri
fri2723:00+39ssw5121616 0.0 995352
02:00+37ssw713200 0.0 993299
05:00+33ssw59390 0.0 994180
08:00+38sse33260 0.0 996405
11:00+44se25110 0.0 9951990
14:00+50s2930 0.0 9916432
17:00+50w101010 0.0 9896889
20:00+44nw91630 0.0 990434
28 may, sat
sat2823:00+42nw101930 0.0 991630
02:00+39wnw91940 0.0 991569
05:00+38wnw81650 0.0 990480
08:00+42wnw101240 0.0 9911459
11:00+46ne5430 0.0 9913792
14:00+47nnw4430 0.0 9894650
17:00+47n3550 0.0 9885120
20:00+42sw2270 0.0 98914
29 may, sun
sun2923:00+38n48160 0.0 991214
02:00+37n513180 0.0 991354
05:00+34n512200 0.0 992253
08:00+40n89150 0.0 9931014
11:00+44n66110 0.0 9942116
14:00+47nnw4291 0.0 9914971
17:00+46n34726 0.0 9904691
20:00+40e34120 0.0 99150